This demonstration page uses our WeatherBlox Daily Observations layout. Learn more.

36.17497, -115.13722

Hourly Observations for September 23, 2018

Temp ( °F °C ) Dew Point ( °F °C ) Humidity (%) Winds ( mph kmh ) Pressure ( in mb ) Visibility ( mi km ) Precip ( " mm )
12:53 am 00:53 Clear 79 26.1 39 3.9 24 24 NNW 5 7 29.83 1010 10 16.09344 0 0
1:53 am 01:53 Clear 77 25 39 3.9 26 26 Calm 29.83 1010 10 16.09344 0 0
2:53 am 02:53 Cloudy 77 25 40 4.4 26 26 N 6 9 29.8 1009 10 16.09344 0 0
3:53 am 03:53 Mostly Cloudy 77 25 40 4.4 26 26 N 8 13 29.83 1010 10 16.09344 0 0
4:53 am 04:53 Mostly Clear 77 25 40 4.4 26 26 W 5 7 29.83 1010 10 16.09344 0 0
5:53 am 05:53 Clear 77 25 38 3.3 24 24 Calm 29.83 1010 10 16.09344 0 0
6:53 am 06:53 Sunny 74 23.3 40 4.4 29 29 N 3 6 29.83 1010 10 16.09344 0 0
7:53 am 07:53 Sunny 76 24.4 41 5 29 29 NNW 7 11 29.85 1011 10 16.09344 0 0
8:53 am 08:53 Mostly Cloudy 79 26.1 40 4.4 25 25 Calm 29.85 1011 10 16.09344 0 0
9:53 am 09:53 Mostly Sunny 86 30 41 5 20 20 Calm 29.88 1012 10 16.09344 0 0
10:53 am 10:53 Sunny 88 31.1 42 5.6 20 20 N 6 9 29.85 1011 10 16.09344 0 0
11:53 am 11:53 Sunny 93 33.9 41 5 16 16 E 8 13 29.83 1010 10 16.09344 0 0
12:53 pm 12:53 Mostly Sunny 94 34.4 41 5 16 16 NNE 8 13 29.8 1009 10 16.09344 0 0
1:38 pm 13:38 Mostly Sunny 97 36.1 40 4.4 14 14 SW 15 24 29.59 1002 10 16.09344 0 0
1:53 pm 13:53 Partly Cloudy 96 35.6 40 4.4 14 14 W 14 22 29.77 1008 10 16.09344 0 0
2:53 pm 14:53 Sunny 97 36.1 40 4.4 14 14 WSW 13 20 29.74 1007 10 16.09344 0 0
3:53 pm 15:53 Mostly Sunny 98 36.7 39 3.9 13 13 WSW 17 28 29.71 1006 10 16.09344 0 0
4:53 pm 16:53 Sunny 96 35.6 38 3.3 13 13 W 10 17 29.71 1006 10 16.09344 0 0
5:53 pm 17:53 Sunny 95 35 37 2.8 13 13 W 18 30 29.68 1005 10 16.09344 0 0
6:53 pm 18:53 Clear 93 33.9 38 3.3 14 14 W 9 15 29.68 1005 10 16.09344 0 0
7:53 pm 19:53 Clear 92 33.3 38 3.3 15 15 WSW 9 15 29.71 1006 10 16.09344 0 0
8:53 pm 20:53 Clear 89 31.7 39 3.9 17 17 WSW 9 15 29.71 1006 10 16.09344 0 0
9:53 pm 21:53 Clear 88 31.1 39 3.9 18 18 SW 8 13 29.71 1006 10 16.09344 0 0
10:53 pm 22:53 Clear 86 30 39 3.9 19 19 WSW 7 11 29.71 1006 10 16.09344 0 0
11:53 pm 23:53 Clear 86 30 38 3.3 18 18 W 9 15 29.71 1006 10 16.09344 0 0

Powered by AerisWeather